Temp
10 10 10 9 9 9 9 9 9 9 9 9 9 9 9 10 10 10 10 10 10 9 9 9 9 9 9 9 9 9 9 9 8 8 8 8 8 8 7 7 7 7 7 8 9 9 10 10 10 10 10 10 9 9 8 8 8 8 8 8 8 8 9 8 8 8 8 8 8
9 9 9 9 9 9 9 9 9 9 9 9 9 9 9 9 10 10 10 10 10 9 9 9 9 9 9 9 9 9 9 9 9 8 8 8 8 8 8 7 7 7 7 7 8 8 9 9 9 9 9 10 10 10 10 9 8 8 8 7 7 8 8 8 8 8 8 8 8
9 9 9 9 9 9 9 9 9 9 9 9 9 9 9 9 9 10 10 10 10 9 9 9 9 9 9 9 8 8 8 8 9 9 9 8 8 8 8 7 7 7 7 7 7 7 8 8 8 8 8 9 9 10 10 9 9 8 8 7 7 7 7 7 8 8 8 8 8
9 9 8 8 8 8 8 8 9 9 9 9 9 9 9 9 9 9 9 10 10 9 9 9 9 9 9 9 9 8 8 8 8 9 9 9 8 8 8 8 7 7 7 7 7 7 7 7 7 8 8 8 8 9 9 9 9 9 8 7 7 6 6 6 7 7 7 7 7
9 9 8 8 8 8 8 8 9 9 9 9 9 9 9 9 9 9 9 10 10 9 9 9 9 9 9 9 9 8 8 8 8 8 9 9 8 8 8 8 7 7 7 7 7 7 7 7 7 7 7 7 7 7 8 8 9 9 9 8 7 6 6 6 6 6 6 6 7
9 9 9 8 8 8 8 8 8 8 9 8 8 9 8 8 8 9 9 9 10 10 9 9 9 9 9 9 9 9 8 8 8 8 8 9 8 8 8 8 8 7 7 7 7 7 6 7 7 7 7 7 7 7 7 7 8 9 9 8 8 7 7 6 6 6 6 6 6
9 9 9 8 8 8 8 8 8 8 8 8 8 8 8 8 8 8 9 9 10 10 10 9 9 9 9 9 9 9 9 9 8 8 8 8 8 8 8 8 8 7 7 7 7 7 7 6 6 7 7 7 7 7 7 7 7 7 8 8 8 7 7 7 6 7 7 7 7
9 9 9 8 8 8 8 8 8 8 8 8 8 8 8 8 8 8 9 9 9 10 10 9 9 9 9 9 9 9 9 9 9 8 8 8 8 8 8 8 8 7 7 7 7 7 7 7 6 6 6 7 7 7 7 7 7 7 7 7 7 7 7 7 7 7 7 7 7
9 9 9 9 8 8 8 8 8 8 8 8 8 8 8 8 8 8 8 9 9 9 9 9 9 9 9 9 9 9 9 9 9 9 8 8 8 8 8 8 8 7 7 7 7 7 7 7 7 6 6 6 6 6 7 7 7 7 7 6 6 6 6 6 7 7 7 6 7
9 9 9 9 8 8 8 8 8 8 8 8 8 8 8 8 8 8 8 9 9 9 9 9 9 9 9 9 9 9 9 9 9 9 8 8 8 8 8 7 7 7 7 7 7 7 7 7 7 7 6 6 6 6 6 6 7 7 7 7 6 6 6 6 6 6 6 6 6
8 8 9 8 8 8 8 8 8 8 8 8 8 8 8 8 8 8 8 8 9 9 9 9 9 9 9 9 9 9 9 9 9 9 9 8 8 8 8 7 7 7 7 7 7 7 7 7 7 7 7 6 6 6 6 6 6 7 7 7 7 6 6 6 6 6 6 6 6
8 8 8 8 8 8 8 8 8 8 8 8 8 8 8 8 8 8 8 8 8 9 9 9 9 9 9 9 9 9 9 9 9 9 9 8 8 8 8 8 7 7 7 7 7 7 7 7 7 7 7 7 6 6 6 6 6 6 6 7 7 6 6 6 6 6 5 5 5
8 8 8 8 8 8 8 8 8 8 8 8 8 8 8 8 7 8 8 8 8 8 9 9 9 9 9 9 9 9 9 8 8 8 8 8 8 8 8 8 8 7 7 7 7 7 7 7 7 7 7 7 7 6 6 6 6 6 6 6 6 6 6 6 6 6 5 5 5
8 8 8 8 8 8 8 8 7 7 7 7 7 7 7 7 7 7 8 8 8 8 8 8 8 8 8 8 8 8 8 8 8 8 8 8 8 8 8 8 8 8 7 7 7 7 7 7 7 7 7 7 7 6 6 6 6 6 6 6 6 5 5 5 5 5 5 5 5
8 8 8 8 8 8 7 7 7 7 7 7 7 7 7 7 7 7 7 7 8 8 8 8 8 8 8 8 8 8 8 8 8 8 8 8 8 8 8 8 8 8 8 8 7 7 7 7 7 7 7 7 7 7 6 6 6 6 6 6 5 5 5 5 5 4 4 4 4
7 7 7 7 7 7 7 7 7 7 7 7 7 7 7 7 7 7 7 7 7 8 8 8 8 8 8 8 8 8 8 8 8 8 8 8 8 8 8 8 8 8 8 8 8 8 8 7 7 7 7 7 7 7 7 6 6 6 6 6 6 5 5 5 5 4 4 4 4
7 7 7 7 7 7 7 7 6 6 6 6 7 7 7 7 7 7 7 7 7 7 8 8 8 8 8 8 8 8 8 8 8 8 8 8 8 8 8 8 8 8 8 8 8 8 8 8 7 7 7 7 7 7 7 6 6 6 6 6 6 6 5 5 5 4 4 4 4
7 6 6 6 6 6 6 6 6 6 6 6 6 6 6 6 6 7 7 7 7 7 7 7 7 7 7 8 8 8 8 8 8 8 8 8 8 8 8 8 8 8 8 8 8 8 8 8 8 8 7 7 7 7 7 7 7 6 6 6 6 6 6 5 5 5 4 4 4
6 6 6 6 6 6 6 6 6 6 6 6 6 6 6 6 6 6 6 6 6 6 6 7 7 7 7 7 7 7 7 7 8 8 8 8 8 8 8 8 8 8 8 8 8 8 8 8 8 8 8 8 8 7 7 7 7 7 6 6 6 6 6 5 5 5 5 4 4
6 6 6 6 6 6 6 6 5 5 5 6 6 6 6 6 6 6 6 6 6 6 6 6 6 6 6 6 7 7 7 7 7 7 7 7 7 7 7 7 7 7 7 7 7 7 7 7 7 7 7 7 7 7 7 7 7 7 6 6 6 6 6 5 5 5 5 5 4
6 6 6 6 6 5 5 5 5 5 5 5 6 6 6 6 6 6 6 6 6 6 6 6 6 6 6 6 6 6 7 7 7 7 7 7 7 7 7 7 7 7 7 7 7 7 7 7 7 7 7 7 7 7 7 7 7 7 7 6 6 6 6 5 5 5 5 5 5
5 5 5 5 5 5 5 5 5 5 6 6 6 6 6 6 6 6 6 6 6 6 6 6 6 6 6 6 6 6 6 6 6 6 6 7 7 7 6 6 6 6 6 6 6 6 6 6 6 6 6 7 7 7 7 7 6 6 6 6 6 6 6 6 5 5 5 5 4
5 5 5 5 5 5 5 5 5 5 6 6 6 6 6 6 6 6 6 6 6 6 6 6 6 6 6 6 6 6 6 6 6 6 6 6 6 6 6 6 6 6 6 6 6 6 6 6 6 6 6 6 6 6 6 6 6 6 6 6 6 6 6 6 6 5 5 5 4
5 5 5 5 5 5 5 5 5 5 5 6 6 6 6 6 6 6 6 6 6 6 6 6 6 6 6 6 6 6 6 6 6 6 6 6 6 6 6 6 6 6 6 6 6 6 6 6 6 6 6 6 6 6 6 6 6 6 6 6 6 6 6 6 6 6 5 5 5
4 4 4 4 5 5 5 5 5 5 5 5 5 5 5 5 5 5 6 6 6 6 6 6 6 6 6 6 6 6 6 6 6 6 6 6 6 6 6 6 6 6 6 6 5 5 5 5 5 5 5 5 5 5 5 6 6 6 5 5 5 5 5 5 6 6 5 5 5
4 4 4 4 4 4 4 4 4 5 5 5 5 5 5 5 5 5 5 5 5 5 5 5 5 5 5 5 6 6 6 5 5 5 5 5 6 6 6 5 5 5 5 5 5 5 5 5 5 5 5 5 5 5 5 5 5 5 5 5 5 5 5 5 5 5 5 5 5
4 4 4 4 4 4 4 4 4 4 4 4 5 5 5 5 5 5 5 5 5 5 5 5 5 5 5 5 5 5 5 5 5 5 5 5 5 5 5 5 5 5 5 5 5 5 5 5 5 5 5 4 4 4 4 5 5 5 5 5 5 5 5 4 5 5 5 5 5
4 4 4 4 4 4 4 4 4 4 4 4 4 4 5 5 5 5 5 5 5 5 5 5 5 5 5 5 5 5 5 5 5 5 5 5 5 5 5 5 5 5 5 5 5 5 5 5 5 5 4 4 4 4 4 4 4 4 4 5 5 5 4 4 4 5 5 5 5
4 4 4 4 4 4 4 4 4 4 4 4 4 4 4 4 4 4 4 4 5 5 5 5 5 5 5 5 5 5 5 5 5 5 4 4 5 5 5 5 5 5 5 5 5 5 5 5 5 4 4 4 4 4 4 4 4 4 4 4 4 4 4 4 4 4 4 4 4
4 4 4 4 4 4 4 4 4 3 4 4 4 4 4 4 4 4 4 4 4 4 4 4 4 4 4 4 4 4 4 4 4 4 4 4 4 4 4 4 5 5 5 5 5 5 5 5 4 4 4 4 4 4 4 4 4 4 4 4 4 4 4 4 4 4 4 4 4
4 4 3 3 4 4 4 4 3 3 3 3 4 4 4 4 4 4 4 4 4 4 4 4 4 4 4 4 4 4 4 4 4 4 4 3 3 4 4 4 4 5 5 5 5 5 4 4 4 4 4 4 4 4 4 4 4 4 4 4 4 4 4 4 4 4 4 4 4
4 4 3 3 3 3 4 3 3 3 3 3 3 3 4 4 4 4 3 3 3 3 4 4 4 4 4 4 4 4 4 3 3 3 3 3 3 3 4 4 4 5 5 5 4 4 4 4 4 4 4 4 4 4 4 4 4 4 4 4 4 4 4 4 4 4 4 4 4
4 3 3 3 3 3 3 3 3 3 3 3 3 3 3 3 3 3 3 3 3 3 3 3 3 3 3 3 3 3 3 3 3 3 3 3 3 3 3 4 4 5 5 4 4 4 4 4 4 4 4 4 4 4 4 4 4 4 4 4 4 4 4 4 4 4 4 4 4
3 3 3 3 3 3 3 3 3 3 3 3 3 3 3 3 3 3 3 3 3 3 3 3 3 3 3 3 3 3 3 3 3 3 3 3 3 3 3 4 4 5 5 4 4 4 4 4 4 4 4 4 4 3 3 3 4 4 4 4 4 4 4 4 4 4 4 4 4
3 3 3 3 3 3 3 3 3 2 2 2 2 3 3 2 2 2 2 2 2 2 2 2 2 2 2 2 2 2 2 2 2 3 3 3 3 3 3 4 4 5 5 4 4 4 4 4 4 4 3 3 3 3 3 3 3 3 4 4 4 4 4 4 4 4 4 4 4
3 3 3 3 3 3 3 3 2 2 2 2 2 2 2 2 2 2 2 2 2 2 2 2 2 2 2 2 2 2 2 2 2 2 2 2 2 2 3 3 4 5 5 5 4 4 4 4 4 3 3 3 3 3 3 3 3 3 3 3 3 4 4 4 4 4 4 4 3
3 3 2 2 2 2 2 2 2 2 2 2 2 2 2 2 2 2 2 1 1 1 1 1 2 2 2 1 2 1 1 1 1 2 2 2 2 2 2 3 3 4 5 5 4 4 4 4 3 3 3 2 2 3 3 3 3 3 3 3 3 3 3 3 3 3 3 3 3
3 2 2 2 2 2 2 2 2 2 2 2 2 2 2 1 1 1 1 1 1 1 1 1 1 1 1 1 1 1 1 1 1 1 1 2 2 2 1 2 3 4 4 4 4 4 4 4 3 3 3 2 2 2 2 3 3 3 3 3 3 3 3 3 3 3 3 3 3
2 2 2 2 2 2 2 2 2 2 2 2 1 1 1 1 1 1 1 1 1 0 0 0 1 1 1 1 1 1 1 1 1 1 1 1 1 1 1 1 2 3 4 4 4 4 4 4 3 3 3 2 2 2 2 2 2 2 3 3 3 3 3 3 3 3 3 3 3
2 2 2 2 2 2 2 2 2 2 1 1 1 1 1 1 1 1 1 1 1 1 0 0 1 1 1 1 0 1 1 1 1 2 1 1 1 1 1 1 2 2 3 4 4 4 3 3 3 3 3 2 2 2 2 2 2 2 2 2 2 2 3 3 3 3 3 3 3
2 2 2 2 2 2 2 2 1 1 1 1 1 1 1 1 1 1 1 1 1 1 1 1 1 1 1 0 0 0 1 1 1 2 2 2 1 1 1 1 1 2 3 3 4 3 3 3 3 3 3 2 2 2 2 2 2 2 2 2 2 2 2 2 2 3 3 3 3
Height
801 801 801 800 800 799 799 798 798 798 797 797 796 796 795 795 794 794 793 793 793 792 791 791 790 790 789 788 788 787 786 785 785 784 783 782 781 780 780 779 778 777 776 774 773 772 770 769 768 767 766 765 764 763 762 760 759 758 757 756 756 755 754 753 753 751 750 749 748
800 800 800 800 799 799 798 798 798 797 797 796 796 795 795 794 794 793 793 793 792 792 791 790 790 789 788 788 787 787 786 785 784 783 783 782 781 780 779 778 778 777 776 775 773 772 771 769 768 767 766 765 764 763 762 761 760 758 758 757 756 755 754 754 753 752 751 750 749
799 799 799 799 799 798 798 798 797 797 796 796 795 795 794 794 793 793 793 792 792 791 790 790 789 788 788 787 787 786 785 785 784 783 783 782 781 780 779 778 778 777 776 775 774 773 771 770 769 768 766 765 765 764 763 762 761 759 758 758 757 756 755 754 754 753 752 751 750
798 798 798 798 798 798 798 797 797 796 796 795 795 794 794 793 793 793 792 792 792 791 790 789 789 788 788 787 786 786 785 784 784 783 782 782 781 780 779 778 778 777 776 775 774 773 772 771 769 768 767 766 765 764 763 762 761 760 759 758 758 757 756 755 754 753 753 752 751
797 797 798 798 797 797 797 796 796 796 795 795 794 794 793 793 793 792 792 792 791 791 790 789 788 788 787 787 786 785 785 784 783 783 782 781 780 780 779 778 777 777 776 775 774 773 772 771 770 769 768 767 765 764 763 763 762 761 760 759 758 758 756 755 755 754 753 753 752
795 796 796 797 797 796 796 796 795 795 795 794 794 793 793 793 792 792 791 791 791 790 790 789 788 788 787 786 785 785 784 783 783 782 782 781 780 779 778 778 777 776 776 775 774 773 773 771 770 769 768 767 766 765 764 763 762 761 760 760 759 758 757 756 755 754 753 753 752
793 794 795 795 796 796 795 795 795 794 794 794 793 793 793 792 792 791 791 790 790 790 789 788 788 787 786 786 785 784 784 783 783 782 781 781 780 779 778 778 777 776 776 775 774 773 773 772 771 769 768 768 766 765 764 763 762 761 761 760 759 758 758 757 756 755 754 753 752
792 793 793 794 794 795 795 794 794 794 794 793 793 793 792 792 791 791 790 790 790 789 789 788 788 787 786 785 785 784 783 783 782 782 781 780 779 779 778 777 777 776 775 775 774 773 772 772 771 770 769 768 767 766 764 763 762 761 761 760 759 759 758 757 756 755 754 753 753
790 791 792 793 793 794 794 794 794 794 793 793 793 793 792 791 791 790 790 789 789 789 788 788 787 786 786 785 784 784 783 782 782 781 780 780 779 778 778 777 776 776 775 774 774 773 772 772 771 770 769 768 767 766 765 764 763 761 761 760 759 759 758 758 757 756 755 754 753
790 790 791 792 793 793 793 793 793 793 793 793 793 792 792 791 791 790 790 789 789 788 788 787 787 786 785 785 784 783 783 782 782 781 780 779 779 778 777 777 776 775 775 774 773 773 772 771 771 770 769 768 767 766 765 764 763 762 761 760 759 758 758 758 757 757 756 755 754
789 789 790 791 792 792 793 793 793 793 793 793 792 792 792 791 791 790 789 789 788 788 788 787 786 786 785 784 783 783 783 782 781 781 780 779 778 778 777 776 775 775 774 774 773 772 772 771 770 769 769 768 767 766 765 764 763 762 761 760 759 758 758 757 757 757 756 755 755
789 789 790 790 791 792 792 793 793 793 793 793 792 792 792 791 790 790 789 789 788 788 787 787 786 785 784 784 783 783 782 782 781 780 780 779 778 778 777 776 775 775 774 773 773 772 771 770 770 769 768 768 767 766 765 764 763 762 761 760 759 758 758 757 757 756 756 755 755
789 789 790 790 791 791 792 792 792 793 793 792 792 792 791 791 790 790 789 788 788 787 787 786 785 785 784 783 783 782 782 781 781 780 779 778 778 777 777 776 775 774 774 773 772 772 771 770 769 768 768 767 767 766 765 764 763 762 761 760 759 758 758 757 756 756 755 755 755
789 789 790 790 790 791 791 792 792 792 792 792 792 792 791 791 790 789 789 788 788 787 786 786 785 784 784 783 783 782 781 781 780 780 779 778 778 777 776 776 775 774 773 773 772 771 770 769 769 768 767 767 766 765 765 764 763 762 761 760 759 758 758 757 757 756 755 755 754
789 789 789 790 790 791 791 791 792 792 792 792 791 791 791 790 790 789 788 788 787 787 786 785 785 784 783 783 782 782 781 781 780 779 779 778 778 777 776 775 775 774 773 773 772 771 770 769 768 768 767 766 765 765 764 764 763 762 761 761 760 759 758 758 757 756 756 755 754
789 789 789 790 790 790 791 791 791 791 791 791 791 790 790 789 789 788 788 787 787 786 786 785 784 784 783 783 782 781 781 780 780 779 778 778 777 777 776 775 775 774 773 773 772 771 770 770 769 768 767 766 765 764 764 763 763 762 761 760 760 759 758 758 757 756 756 755 754
789 789 789 790 790 790 790 790 790 790 790 790 790 790 789 789 788 788 788 787 786 786 785 785 784 783 783 782 782 781 780 780 779 778 778 778 777 776 776 775 774 774 773 772 772 771 770 769 769 768 767 766 765 764 763 763 762 761 761 760 759 758 758 757 757 756 756 755 755
788 789 789 790 790 790 790 790 790 790 790 790 789 789 789 788 788 787 787 786 786 785 784 784 783 783 783 782 781 781 780 779 778 778 778 777 776 776 775 775 774 773 773 772 771 771 770 769 768 768 767 766 765 764 763 762 761 761 760 759 759 758 758 757 756 756 755 755 754
788 789 789 789 790 790 790 790 790 790 789 789 789 789 788 788 787 787 786 786 785 784 784 783 783 782 782 781 781 780 779 779 778 778 777 777 776 775 775 774 773 773 773 772 771 770 769 769 768 767 767 766 765 764 763 762 761 760 759 759 758 757 757 756 756 755 755 754 754
789 789 789 789 790 790 790 790 790 789 789 789 788 788 788 788 787 786 786 785 784 784 783 783 782 781 781 780 780 779 778 778 777 777 776 776 775 775 774 773 773 773 772 771 771 770 769 768 768 767 766 765 764 763 763 762 761 760 759 758 758 757 756 756 755 755 754 754 753
789 789 789 790 790 790 790 790 790 789 789 789 788 788 788 787 787 786 785 784 784 783 783 782 781 781 780 779 779 778 778 777 777 776 775 775 774 774 773 773 772 772 771 771 770 769 769 768 767 766 766 765 764 763 762 761 760 759 758 758 757 756 755 755 754 754 753 753 753
789 789 790 790 790 790 790 790 789 789 789 788 788 788 787 787 786 786 785 784 783 783 782 781 781 780 779 779 778 777 777 776 775 775 774 774 773 773 772 772 771 771 770 770 769 769 768 767 767 766 765 764 763 763 762 761 760 759 758 757 756 756 755 754 754 753 753 752 752
789 789 789 789 790 790 789 789 789 789 788 788 788 788 787 787 786 785 785 784 783 783 782 781 780 779 779 778 777 777 776 775 774 774 773 773 772 772 771 771 770 769 769 769 768 768 767 766 766 765 764 763 763 762 761 760 759 758 758 757 756 755 754 753 753 752 752 752 751
788 789 789 789 789 789 789 789 788 788 788 788 787 787 787 786 785 785 784 783 783 782 781 781 780 779 778 778 777 776 775 774 773 773 772 772 771 770 770 769 769 768 768 768 767 767 766 765 764 764 763 763 762 761 760 759 759 758 757 756 755 754 753 753 752 751 751 751 750
788 788 788 788 788 788 788 788 788 787 787 787 786 786 786 785 784 784 783 783 782 781 781 780 779 778 778 777 776 775 774 773 773 772 771 770 770 769 769 768 768 767 767 766 766 766 765 765 764 763 762 762 761 760 759 758 758 757 756 755 754 753 752 751 751 750 750 750 749
788 788 788 788 787 787 787 787 787 786 786 786 785 785 785 784 783 783 782 782 781 780 780 779 778 778 777 776 775 774 773 773 772 771 770 769 768 768 768 767 766 766 765 765 765 764 764 763 763 763 762 761 760 759 758 757 757 756 755 754 754 753 752 751 750 749 749 748 748
787 787 787 787 786 786 786 786 786 785 785 785 784 784 783 783 783 782 781 781 780 779 779 778 778 777 776 775 774 773 773 772 771 770 769 769 768 767 766 766 765 765 764 764 763 763 763 762 762 762 761 760 759 758 758 757 756 755 754 754 753 752 751 750 749 748 748 747 747
787 786 786 786 785 785 785 785 785 784 784 783 783 783 782 782 781 781 780 780 779 778 778 778 777 776 775 774 773 773 772 771 770 769 769 768 767 766 766 765 764 763 763 763 762 762 761 761 760 760 760 759 758 758 757 756 755 754 753 753 752 751 750 749 748 748 747 746 746
786 786 785 785 784 784 784 784 783 783 783 783 782 782 781 781 780 780 779 778 778 778 777 776 776 775 774 773 773 772 771 770 769 768 768 767 766 765 764 764 763 762 762 761 761 760 760 759 759 758 758 758 757 757 756 755 754 753 753 752 751 750 749 748 748 747 746 745 745
786 785 785 784 783 783 783 783 783 782 782 782 781 781 780 780 779 779 778 778 777 777 776 775 775 774 773 773 772 771 770 769 768 768 767 766 765 764 763 763 762 761 761 760 759 759 758 758 757 757 756 756 756 755 754 754 753 752 751 750 750 749 748 748 747 746 745 744 744
786 785 784 783 783 782 782 782 782 781 781 781 780 780 779 779 778 778 777 777 776 775 775 774 774 773 772 772 771 770 769 768 768 767 766 765 764 763 762 761 760 760 759 759 758 758 757 756 756 755 755 755 754 754 753 753 752 751 750 749 749 748 748 747 746 745 744 744 743
785 784 784 783 782 782 781 781 781 780 780 780 779 779 778 778 777 777 776 776 775 774 774 773 773 772 771 770 770 769 768 767 767 766 765 764 763 762 761 760 759 758 758 757 757 756 755 755 754 754 753 753 753 752 752 751 750 750 749 748 748 747 746 746 745 744 743 743 742
785 784 783 782 782 781 780 780 780 779 779 779 778 778 778 777 776 776 775 775 774 773 773 772 771 770 770 769 768 768 767 766 765 765 764 763 762 761 760 758 758 757 757 756 755 755 754 753 753 752 752 752 751 751 750 749 749 748 747 747 746 745 745 744 744 743 742 742 741
784 783 783 782 781 780 780 779 779 778 778 778 777 777 777 776 775 775 774 774 773 772 772 771 770 769 769 768 767 767 766 765 764 763 763 762 761 760 758 758 757 756 756 755 754 753 753 752 752 751 751 750 749 749 748 748 747 746 746 745 744 744 743 743 742 742 741 741 740
783 783 782 781 780 780 779 778 778 778 777 777 776 776 775 775 774 773 773 772 772 771 770 770 769 768 768 767 766 766 765 764 763 762 761 760 759 758 757 756 755 755 754 754 753 753 752 751 750 750 749 748 748 747 746 746 745 744 744 743 743 742 742 741 741 740 740 739 739
783 782 781 780 779 779 778 778 777 777 776 776 775 774 774 773 773 772 772 771 770 769 769 768 768 767 766 766 765 764 763 763 762 761 760 759 758 757 756 755 754 753 753 753 752 751 751 750 749 748 748 747 746 745 745 744 743 743 742 741 740 740 739 739 739 739 738 738 738
782 781 780 779 778 778 777 777 776 776 775 774 774 773 773 772 772 771 770 770 769 768 767 767 766 766 765 764 763 763 762 762 761 760 758 758 757 756 755 754 753 752 752 751 751 750 749 748 748 747 747 746 745 744 743 743 742 741 740 739 738 738 738 737 737 737 737 736 736
781 780 779 778 778 777 776 776 775 774 774 773 773 772 772 771 770 769 769 769 768 767 766 765 765 764 764 763 762 761 761 760 759 758 758 757 756 755 754 753 751 750 750 750 749 748 748 747 746 746 745 744 743 743 742 741 740 739 738 738 737 736 735 735 735 735 734 734 734
779 779 778 777 777 776 775 775 774 773 773 772 772 771 770 770 769 768 768 767 767 766 765 764 763 763 763 762 761 760 759 758 758 757 756 755 755 754 753 752 750 749 748 748 747 747 746 746 745 744 744 743 742 741 740 739 739 738 737 736 735 734 733 733 733 733 732 732 732
778 778 777 776 775 775 774 773 773 772 772 771 770 770 769 768 768 767 766 766 765 765 764 763 762 762 761 761 760 759 758 757 756 756 755 754 753 753 752 750 749 748 747 747 746 745 745 744 743 743 742 742 741 740 739 738 738 736 735 735 734 733 732 731 731 731 730 730 730
776 776 775 775 774 773 773 772 771 771 771 770 769 768 768 767 766 765 765 764 764 763 763 762 761 761 760 760 759 758 756 755 754 754 753 753 752 751 750 749 748 746 745 745 744 744 743 743 742 741 741 740 739 739 738 737 736 735 734 733 733 732 731 730 729 729 728 728 728
Wind_Speed
11 12 12 12 13 13 13 13 12 12 11 10 10 10 9 10 10 10 10 11 11 12 12 11 12 12 12 12 13 14 15 15 16 17 17 18 18 19 19 20 21 22 23 24 24 24 24 24 24 23 22 22 21 20 19 19 19 18 18 18 19 19 19 20 20 21 21 20 20
10 10 11 11 12 12 13 13 12 11 10 10 9 9 9 10 10 10 11 11 11 11 12 11 11 11 12 12 12 13 14 15 15 15 16 17 17 18 18 19 20 21 22 23 24 25 25 25 26 25 24 23 22 21 21 20 19 19 18 19 18 18 19 19 19 20 20 20 20
9 10 10 11 12 13 13 13 12 11 10 9 8 8 9 9 10 11 11 11 11 11 12 12 11 11 11 11 12 12 13 14 14 14 15 15 16 17 18 19 20 20 21 22 24 24 25 25 26 25 24 23 22 22 21 21 19 19 18 18 18 18 19 19 19 19 19 20 20
9 10 11 11 12 13 13 13 12 11 10 9 8 8 8 9 10 10 11 11 11 12 11 11 11 10 10 11 11 12 12 13 13 13 14 14 15 16 17 18 19 20 21 22 23 24 24 24 25 25 25 23 22 22 22 21 20 19 18 18 18 18 18 18 18 18 18 19 19
8 9 10 11 12 12 13 12 12 11 10 9 9 8 8 9 9 10 10 11 11 11 11 10 10 10 10 10 11 11 12 12 12 12 13 13 14 15 16 17 18 19 20 21 22 23 23 24 24 24 24 24 23 22 22 21 20 19 18 18 17 17 18 18 18 18 18 18 18
7 8 10 11 11 12 12 12 11 11 10 10 10 9 9 9 9 9 10 10 10 10 10 10 9 9 9 9 10 11 11 12 12 12 12 12 13 14 15 16 17 18 19 20 21 22 23 23 24 24 24 24 23 23 23 22 21 20 19 18 18 17 18 18 18 18 18 18 18
6 8 9 10 11 11 11 11 11 10 10 10 10 10 10 9 9 9 9 9 9 9 9 9 8 8 8 9 10 11 11 11 12 12 12 12 13 13 14 15 16 17 19 20 21 21 22 23 23 23 24 23 23 23 23 23 22 20 20 19 18 18 18 18 18 18 18 18 18
6 7 8 9 10 10 10 10 10 10 10 10 10 10 10 9 9 8 8 8 8 8 8 8 7 7 8 9 10 11 11 12 12 12 12 13 13 14 14 15 16 17 18 19 20 21 21 22 22 23 23 23 23 23 23 23 22 21 20 20 19 18 18 18 17 17 17 17 17
6 6 7 7 8 8 8 8 9 9 10 10 10 10 9 9 8 8 8 7 7 7 7 7 7 7 8 9 10 10 11 12 12 13 13 13 14 14 15 15 16 16 17 18 19 20 21 21 21 22 22 23 23 23 23 22 22 22 21 20 19 19 18 18 17 17 17 17 17
6 6 6 6 6 6 7 7 8 8 9 9 9 9 9 8 8 8 8 7 7 6 6 7 7 7 8 9 10 10 11 12 13 13 13 14 14 15 15 16 16 17 17 18 18 19 20 20 20 21 21 22 22 23 22 22 22 23 22 20 20 19 19 18 18 17 17 17 17
7 6 6 5 5 5 6 6 7 8 8 9 9 9 8 8 8 8 8 7 7 7 7 7 7 8 8 9 9 10 11 12 12 13 14 14 15 15 16 16 16 17 17 18 18 19 19 19 20 20 20 21 21 22 22 22 22 22 22 21 20 20 19 19 19 18 18 17 17
8 7 6 6 5 5 6 6 7 8 8 9 9 9 9 9 9 8 8 8 8 8 7 7 8 8 9 9 9 10 11 11 12 13 14 14 15 15 16 16 16 17 17 18 18 19 19 19 20 20 20 20 20 21 21 21 22 22 22 21 21 20 20 20 20 20 19 18 17
8 8 7 6 5 5 6 6 7 8 8 9 10 10 10 10 10 10 9 9 9 9 8 8 8 9 9 9 9 10 10 11 12 13 13 14 14 15 15 16 16 16 17 17 18 18 19 19 20 20 20 20 20 20 20 20 21 21 21 20 20 20 20 20 21 21 20 19 18
9 8 7 6 5 5 5 6 7 8 9 10 11 11 11 11 11 10 10 10 10 10 9 9 9 9 9 9 10 10 10 11 11 12 13 13 14 14 15 15 16 16 16 17 17 18 18 19 20 20 21 21 20 19 19 19 20 20 20 19 19 19 19 19 20 20 20 20 19
9 8 8 7 6 5 5 5 6 7 9 10 11 12 12 12 11 11 11 11 10 10 9 9 9 9 9 10 10 10 10 11 11 12 12 13 13 14 14 15 15 16 16 16 17 17 18 18 19 20 20 21 20 20 19 19 19 19 19 18 18 18 17 18 18 18 19 19 20
8 8 8 7 6 5 5 5 6 7 8 9 11 11 12 12 11 11 11 11 10 9 9 9 9 9 9 9 10 10 10 11 11 12 12 13 13 13 14 14 15 15 16 16 17 17 17 17 18 19 20 20 20 20 20 19 19 19 18 18 18 17 17 16 16 16 17 17 18
8 8 8 7 7 6 6 6 7 7 8 9 10 11 11 11 11 11 10 10 10 10 10 9 9 9 9 9 10 10 10 11 11 12 12 12 13 13 14 14 14 15 15 16 16 17 17 17 17 18 19 19 20 20 20 19 19 19 18 18 17 17 16 16 15 15 15 15 16
8 8 8 8 8 8 8 8 8 9 9 10 10 11 11 11 11 11 10 10 10 11 11 11 10 10 11 11 10 10 11 11 12 12 12 12 13 13 13 14 14 14 15 15 16 17 17 17 17 17 18 18 19 19 19 19 19 19 18 18 17 17 16 16 15 15 15 15 15
8 8 8 9 9 9 9 10 10 10 10 10 11 11 11 11 11 11 11 10 11 11 12 12 12 12 12 12 12 11 11 12 13 13 12 12 12 13 13 13 14 14 15 15 16 16 16 17 17 17 17 18 18 19 19 19 19 19 18 18 17 17 16 16 15 15 15 15 15
8 8 8 9 9 9 10 10 10 10 10 11 11 11 11 11 11 11 11 11 11 11 12 13 13 13 13 13 13 13 13 12 13 13 13 13 13 13 14 14 14 15 15 15 16 16 16 17 17 17 17 18 18 19 19 19 19 19 19 18 17 17 16 16 16 16 15 15 16
8 8 9 9 9 10 10 10 11 11 11 11 11 11 11 11 11 11 12 12 12 12 12 13 13 14 14 14 14 14 14 13 13 14 14 14 14 14 14 15 15 16 16 16 16 16 17 17 17 17 18 18 18 19 19 19 19 19 19 18 18 17 17 16 16 16 16 16 16
9 9 9 10 10 10 11 11 11 11 11 11 11 12 12 12 12 12 12 12 12 13 13 13 13 14 14 14 14 14 14 14 14 14 14 15 15 15 15 15 16 17 17 17 17 17 17 18 18 18 18 18 19 19 19 20 20 20 20 19 19 18 17 17 17 17 17 17 17
9 10 10 10 11 11 11 12 12 12 12 12 12 12 12 13 13 13 13 13 13 13 13 13 13 14 14 14 14 15 15 15 15 15 15 15 15 15 16 16 16 17 17 17 17 18 18 19 19 19 19 19 19 19 19 20 20 21 21 21 20 20 19 18 18 17 17 18 18
10 10 10 10 11 11 11 12 12 13 13 13 13 13 13 14 14 14 14 14 14 14 14 14 14 14 14 14 14 14 15 16 16 16 16 16 16 16 16 16 17 17 17 17 17 18 19 20 20 21 20 20 20 20 20 20 21 21 22 22 22 22 21 20 19 18 18 18 18
10 10 10 10 11 11 11 12 12 12 13 13 13 14 14 14 15 15 15 15 15 15 15 15 15 15 15 15 15 15 15 16 16 17 17 17 17 16 16 17 17 17 17 17 17 18 18 19 21 21 22 22 22 22 22 22 22 22 23 24 24 24 24 23 22 20 19 19 19
11 11 11 11 11 11 11 12 12 12 12 13 13 14 14 14 15 15 16 16 16 16 16 16 15 15 15 15 15 15 15 16 16 16 17 18 18 18 17 17 17 17 17 17 17 17 18 19 20 21 21 22 22 23 23 23 23 23 24 25 25 26 26 26 25 23 22 21 20
12 12 12 12 12 12 12 12 12 12 12 13 13 13 14 14 15 15 15 15 16 16 16 16 15 16 16 16 16 16 16 16 16 16 17 18 18 18 19 18 18 18 18 17 17 17 17 18 19 20 21 21 22 22 23 24 24 24 25 26 26 27 27 27 27 26 25 23 22
14 14 13 13 13 13 13 13 13 13 13 13 13 14 14 14 14 15 15 15 15 15 15 15 15 15 16 16 16 16 16 16 17 17 17 18 18 19 19 19 19 19 18 18 18 17 17 17 18 19 20 21 21 22 23 23 24 25 25 26 27 27 28 28 28 28 27 26 25
15 15 15 15 14 14 13 13 13 14 14 14 14 14 15 15 15 15 15 15 15 15 15 15 16 16 16 16 16 16 16 16 16 17 17 18 18 19 19 19 20 20 20 19 19 18 18 18 18 19 19 20 21 22 23 23 24 25 25 26 27 28 28 29 29 29 28 28 27
16 16 16 16 15 15 14 14 14 14 15 15 15 15 16 16 15 15 15 15 15 15 15 16 16 16 15 16 16 16 16 16 16 17 17 18 18 19 19 20 20 20 20 20 20 20 19 19 19 19 19 19 20 21 22 23 24 25 26 26 27 28 28 29 29 29 29 29 29
17 17 17 17 16 16 15 15 15 15 16 16 16 16 17 17 17 17 16 16 16 16 16 16 16 16 16 16 16 16 16 16 17 17 17 18 19 19 19 20 20 20 21 21 21 21 21 20 20 20 19 19 20 21 22 23 24 25 26 26 27 28 28 29 29 30 30 30 29
17 17 17 17 17 17 16 16 16 16 17 17 17 18 18 18 18 18 17 17 17 17 17 17 17 17 17 17 17 17 17 17 17 18 18 19 20 20 20 20 20 20 20 21 21 21 21 21 21 21 20 20 20 21 22 23 24 25 26 27 27 28 28 29 29 30 30 30 30
18 18 18 18 18 18 17 17 17 17 18 19 19 19 20 20 20 19 19 18 18 18 18 17 17 18 18 18 18 18 18 18 19 19 20 20 21 21 21 21 21 20 20 20 21 21 21 21 21 21 21 20 20 20 21 22 24 25 26 27 28 28 28 29 29 30 30 30 30
19 19 19 19 19 18 18 18 18 19 19 20 21 21 22 22 22 22 21 20 19 19 18 18 18 18 18 18 18 19 20 20 20 21 21 21 22 22 22 22 21 21 20 21 21 21 21 21 21 21 21 21 20 20 21 22 23 25 26 27 28 29 29 29 30 30 30 30 30
19 19 19 19 19 19 19 19 19 20 21 21 22 23 24 24 24 24 23 22 21 20 19 19 18 18 18 18 19 19 20 21 22 23 23 23 23 24 24 23 22 21 20 21 21 21 21 21 21 21 21 21 21 21 21 22 23 24 25 27 28 29 29 30 30 30 31 31 31
19 19 19 19 19 19 19 20 20 21 21 22 24 25 25 26 25 25 24 23 22 21 21 20 19 19 19 19 20 20 21 23 24 24 24 25 25 25 25 24 23 22 21 21 21 21 21 21 21 20 20 21 21 21 21 22 22 24 25 26 28 29 29 30 30 31 31 31 31
18 18 19 19 20 20 20 20 20 21 22 23 24 25 26 27 26 25 24 23 23 22 22 21 21 20 20 20 21 22 22 23 24 25 26 26 26 26 26 26 25 23 22 21 21 21 21 21 20 20 20 21 21 21 22 22 23 23 25 26 27 28 29 29 30 30 31 31 31
18 18 18 19 20 20 20 20 21 21 22 24 25 26 27 27 26 26 24 23 23 23 22 22 22 21 21 21 22 23 24 24 25 26 26 26 26 26 26 26 26 24 23 22 22 21 21 21 20 20 20 21 21 22 22 22 23 24 25 26 27 28 29 29 29 30 31 31 31
18 18 19 19 20 20 20 21 21 22 23 24 26 26 26 26 26 25 24 23 23 22 22 22 22 22 22 22 24 25 25 25 25 26 26 26 26 25 25 26 26 25 24 23 22 22 21 21 20 20 19 20 21 21 22 22 23 24 25 25 26 28 28 29 29 30 30 31 31
19 19 19 19 19 20 20 21 22 22 23 25 25 26 26 25 25 24 23 22 22 22 22 22 22 22 22 23 24 26 26 26 26 25 26 26 25 25 25 26 26 26 24 23 23 22 22 21 20 19 19 19 20 21 22 22 23 24 25 26 26 26 27 28 29 29 30 31 32
19 19 19 19 19 20 20 21 22 23 23 24 24 25 24 24 24 23 23 22 22 22 22 22 22 22 23 23 25 26 27 27 27 26 26 25 25 25 25 25 26 26 25 23 23 22 22 21 20 19 19 19 20 21 22 22 23 24 25 26 26 26 26 27 28 29 30 31 31
Wind_Direction
312 308 304 302 302 303 304 306 307 307 307 308 310 314 318 320 323 324 325 324 324 325 327 329 330 332 336 341 345 347 350 352 352 353 354 357 2 7 10 12 12 12 12 13 13 12 11 11 11 13 15 18 19 20 22 25 26 27 27 25 23 22 21 20 19 18 18 19 22
322 318 313 309 307 307 307 307 307 306 304 305 307 312 317 320 322 323 323 322 321 321 322 323 324 327 330 335 341 344 346 349 350 352 353 355 360 5 8 9 10 10 11 12 13 13 13 12 11 11 13 14 16 16 18 21 23 24 25 24 22 21 21 21 19 17 17 17 18
329 325 320 316 312 310 309 308 307 306 304 304 306 311 317 321 323 323 322 320 318 317 317 318 320 323 326 332 337 341 343 346 347 349 352 355 358 2 5 7 8 8 9 10 12 13 13 13 12 11 11 11 13 13 14 16 18 21 22 22 21 19 19 19 18 17 16 15 16
335 330 324 319 315 312 310 309 308 307 306 306 307 311 318 323 325 324 322 319 316 314 313 313 316 320 326 330 335 339 342 343 344 347 350 354 357 1 3 5 6 5 6 7 9 11 13 13 12 11 9 9 9 10 11 12 14 16 19 19 19 18 16 16 16 16 15 14 15
342 335 329 322 317 313 311 309 308 308 309 309 309 313 318 323 325 323 320 318 315 313 311 311 314 319 325 331 336 339 341 342 342 344 347 352 356 360 2 4 4 4 3 4 5 7 10 11 12 11 9 8 6 6 8 9 11 13 15 16 17 17 15 15 14 14 14 13 13
350 342 334 327 321 316 313 311 309 309 309 310 312 314 318 321 320 319 317 316 314 312 310 310 314 320 327 334 338 341 342 341 341 341 344 349 354 359 1 2 2 2 1 1 2 4 6 8 9 9 8 7 5 4 4 6 8 11 13 14 15 15 15 14 14 13 13 13 13
358 348 339 332 326 320 316 313 311 309 310 311 312 315 317 319 317 316 315 315 312 311 310 312 317 324 333 340 343 344 343 342 340 340 342 345 350 355 359 0 1 0 360 359 359 0 2 4 5 6 6 6 4 3 2 3 4 8 11 13 13 13 13 13 13 13 13 14 14
7 355 345 336 329 323 319 316 313 311 311 312 314 316 317 317 316 315 315 313 312 311 312 315 322 331 339 344 346 345 344 342 341 341 341 342 346 351 355 357 357 358 357 357 356 357 358 0 2 2 3 3 3 2 1 0 360 2 7 10 10 11 11 11 11 12 13 15 14
15 5 353 343 335 328 323 320 318 317 316 317 318 319 318 317 317 317 316 314 314 313 313 317 324 333 341 345 346 345 344 342 341 341 341 342 343 346 349 352 352 353 354 354 353 353 354 356 358 359 0 1 0 0 360 358 356 357 1 5 6 8 8 9 9 10 12 14 14
23 14 3 354 345 338 334 332 330 328 326 325 325 325 323 322 321 320 318 316 314 313 314 318 325 334 342 345 346 345 344 342 341 341 342 343 343 344 345 346 346 347 348 349 348 349 350 352 353 356 358 358 358 357 357 356 354 354 356 359 1 3 4 5 6 8 10 12 12
27 24 16 8 1 356 352 348 345 342 337 335 334 333 332 329 327 324 320 316 314 314 316 319 327 335 342 346 347 346 345 343 342 342 343 344 344 344 343 342 341 341 342 343 343 344 346 348 349 351 353 356 356 355 355 354 353 352 352 354 355 358 359 1 1 3 6 8 9
29 26 23 19 15 10 4 359 355 350 346 343 342 340 338 336 332 327 322 319 316 316 319 323 331 338 343 347 348 347 346 344 344 344 345 345 345 344 342 340 339 338 337 338 338 339 341 343 345 347 349 351 353 353 353 352 351 350 349 349 351 352 353 355 356 357 359 1 3
28 26 24 20 17 11 6 2 357 352 348 345 343 341 339 337 334 330 326 323 321 321 323 328 334 339 343 346 348 347 347 346 346 346 346 345 345 343 341 340 338 336 335 335 335 336 338 339 341 342 344 347 349 351 351 350 349 347 346 345 346 346 347 349 350 351 352 353 355
30 28 25 22 17 12 6 2 356 349 344 340 338 337 335 334 333 331 328 326 325 326 327 331 334 338 340 342 344 345 345 345 345 345 344 345 344 343 341 340 339 337 335 335 335 335 336 336 338 339 340 342 344 347 348 348 347 345 343 341 340 340 341 343 344 345 345 346 347
37 35 32 30 27 21 13 3 352 344 336 332 331 330 329 330 330 330 328 327 327 327 328 331 333 335 337 337 338 339 340 341 341 341 341 342 342 341 341 340 340 338 337 335 336 336 336 335 336 336 337 337 339 342 343 344 344 343 341 338 336 334 334 336 338 339 339 340 340
41 38 34 31 29 24 14 0 347 336 329 325 323 322 323 324 325 326 326 327 327 326 327 329 331 332 332 332 332 332 333 334 335 335 336 337 338 339 339 339 339 338 337 336 335 336 336 336 336 335 334 334 335 337 338 339 339 339 338 336 333 330 329 329 330 331 332 333 333
37 31 25 20 16 9 0 349 339 331 325 321 318 318 318 318 319 321 323 324 324 323 323 324 326 327 327 327 327 326 326 326 327 328 330 331 332 333 334 335 336 335 335 334 334 335 335 336 335 334 332 331 331 332 333 334 334 335 335 334 331 328 325 324 324 324 325 326 326
28 20 12 6 2 356 349 342 335 329 325 321 318 316 315 315 315 316 318 319 320 320 319 319 320 321 322 322 322 322 321 321 320 321 323 324 325 326 328 329 330 331 331 331 332 332 333 333 333 332 330 328 328 328 329 329 330 330 331 330 329 327 325 322 320 319 318 319 320
19 11 4 359 355 350 345 339 333 329 325 321 317 314 312 312 313 313 313 315 316 316 315 315 316 317 318 318 318 318 317 317 316 316 317 318 320 321 322 324 324 325 326 327 328 328 329 329 329 328 326 325 324 324 324 325 325 326 326 326 326 326 324 321 318 316 315 315 315
11 5 359 354 350 347 342 338 333 329 324 319 315 312 311 310 309 310 311 312 311 311 311 312 313 314 315 315 314 314 314 314 313 313 314 315 316 318 319 320 320 320 321 322 323 324 325 324 324 323 322 321 320 320 321 321 321 321 321 322 323 323 323 321 318 315 313 312 313
5 359 353 349 345 342 339 335 331 327 322 318 314 311 309 308 307 308 309 309 308 307 308 308 310 311 311 312 311 311 311 310 310 311 312 313 314 316 317 317 316 316 317 318 320 321 321 320 319 318 318 317 316 317 317 318 317 317 317 318 319 320 320 320 318 315 313 311 311
2 355 348 344 341 337 334 331 328 325 321 318 314 311 309 308 308 308 308 307 307 306 307 307 308 308 309 310 309 309 308 307 307 308 309 311 311 313 314 314 314 313 314 315 317 318 318 317 316 316 315 314 313 313 314 314 314 314 314 315 316 317 317 317 317 315 313 311 310
359 352 346 342 338 335 332 329 326 324 321 318 316 314 313 312 311 310 309 308 308 307 307 307 306 306 307 307 307 306 306 306 306 306 307 308 309 310 310 310 310 310 311 313 314 316 316 316 316 315 314 313 312 311 311 311 311 312 312 313 313 314 314 315 315 314 313 312 310
358 352 347 343 340 337 335 332 329 327 325 323 322 320 318 317 316 314 313 312 311 310 309 307 306 305 304 304 304 305 306 307 307 307 307 307 307 308 308 308 308 308 309 311 313 314 315 315 315 315 314 313 312 310 309 309 309 309 310 311 311 312 312 312 312 313 313 312 310
355 350 346 344 342 341 339 337 335 333 331 329 328 326 324 323 322 321 320 318 317 315 313 310 308 306 305 304 304 304 305 307 308 308 308 307 307 307 307 307 307 307 308 310 311 313 314 315 315 314 314 313 312 310 309 308 307 307 308 308 308 309 309 310 310 311 312 312 311
348 345 343 341 341 341 341 340 339 336 334 333 331 330 329 329 328 327 325 324 322 320 318 315 312 310 309 308 307 307 306 307 308 309 309 309 308 307 306 306 306 307 308 309 311 312 313 313 313 312 311 310 309 308 307 306 305 305 305 305 305 305 306 306 308 309 311 311 311
343 340 339 338 338 339 340 340 338 336 334 333 332 331 331 330 330 329 327 325 324 323 321 318 317 315 314 313 312 311 309 309 309 309 309 309 308 308 307 306 306 306 306 307 309 310 311 311 311 310 308 305 304 303 302 302 302 302 302 301 302 302 302 303 304 307 309 309 309
338 336 334 333 334 335 336 336 336 334 333 331 330 329 329 328 328 327 325 324 323 322 321 320 319 319 318 317 315 314 313 312 312 311 310 309 308 308 307 306 305 305 305 305 306 307 308 308 309 309 306 303 301 299 298 298 298 298 298 298 298 298 299 300 301 303 305 307 308
335 332 330 329 329 330 331 333 333 332 331 329 327 326 326 325 324 323 323 321 321 320 320 320 319 319 318 316 316 315 315 314 314 313 312 311 309 308 307 307 306 305 304 304 304 304 304 305 306 307 306 304 300 297 296 295 295 295 295 295 295 296 296 298 299 300 302 304 305
332 329 327 325 324 325 326 328 329 329 328 326 325 324 323 322 321 321 320 320 319 319 318 318 317 316 315 315 316 315 315 315 316 315 315 314 312 310 309 308 307 306 305 304 304 303 303 303 303 304 305 305 301 298 295 293 293 293 292 293 293 294 295 296 297 298 299 301 302
329 327 324 322 320 320 321 323 324 325 325 324 324 323 322 321 320 319 319 318 317 315 315 314 313 313 313 314 315 315 316 316 317 318 318 318 316 314 311 309 308 307 306 306 305 305 304 303 302 302 304 304 302 298 295 292 291 290 290 290 291 292 293 294 295 296 297 298 299
327 324 322 319 317 317 317 319 320 322 322 323 323 322 322 321 319 318 317 316 315 313 313 312 312 311 312 313 314 315 316 317 318 319 320 320 319 316 313 310 309 308 308 308 308 308 306 305 303 302 302 302 301 298 295 292 290 289 289 289 289 290 291 292 292 293 294 295 296
324 322 319 317 315 314 314 316 317 318 320 320 321 322 322 321 319 317 315 315 314 313 312 312 312 313 314 315 315 316 316 317 317 318 318 318 318 316 314 311 310 310 311 312 311 310 309 307 304 302 301 300 298 296 294 292 290 289 288 288 288 289 290 290 291 291 292 293 294
321 319 317 315 314 313 312 313 314 316 317 317 318 320 321 321 320 318 316 315 314 312 311 311 311 312 313 314 315 316 317 316 316 316 316 317 316 315 313 311 310 311 311 313 313 312 310 308 306 303 302 300 297 295 292 291 290 289 288 288 288 288 289 289 290 291 291 292 292
318 316 315 314 312 311 311 311 312 313 313 314 316 318 319 320 319 318 317 316 314 312 310 309 309 309 310 311 313 315 317 317 316 315 315 315 315 315 313 311 309 309 310 311 312 311 310 309 307 306 304 302 299 295 293 291 290 289 288 288 288 288 288 288 289 290 290 291 291
315 314 313 312 310 310 309 309 309 310 310 312 314 316 318 318 318 317 316 315 313 312 310 310 309 309 311 313 314 315 316 317 316 315 314 314 314 314 313 311 309 308 308 309 310 311 311 310 309 309 307 305 301 298 295 292 290 289 289 288 288 288 288 288 288 288 288 289 289
314 313 311 310 309 308 308 308 307 307 308 310 312 314 316 316 315 314 314 313 313 311 310 310 310 311 313 315 316 315 314 314 314 313 313 313 313 314 313 311 309 308 308 308 309 310 311 310 310 310 308 306 303 301 298 295 292 290 289 288 288 288 288 287 287 287 287 287 287
314 312 310 308 307 307 306 306 305 305 307 309 311 312 313 314 313 312 312 312 311 310 309 309 309 310 312 315 315 313 312 312 312 312 312 312 312 313 313 311 309 308 308 308 309 310 311 310 310 310 308 306 304 302 300 297 295 292 290 288 288 287 287 287 287 287 287 287 287
313 311 309 307 306 306 305 305 304 305 306 308 310 311 311 311 311 310 310 310 309 308 307 307 307 309 311 313 313 312 311 310 310 310 311 311 312 312 312 311 310 308 308 308 309 310 311 311 310 310 308 306 304 302 301 299 296 294 291 289 288 287 287 287 286 286 287 287 287
312 311 309 307 306 305 305 304 304 305 306 307 308 309 310 310 309 308 308 308 307 307 306 306 306 308 309 310 310 310 309 309 309 309 310 311 311 312 312 311 310 309 308 308 309 311 312 312 311 311 309 306 304 302 301 299 296 294 291 289 287 286 286 286 286 286 286 287 288
310 309 308 307 306 305 305 305 305 305 305 306 306 307 308 308 307 307 307 307 307 306 306 305 305 306 307 307 307 307 308 308 308 309 310 311 311 312 311 311 310 309 308 308 310 312 313 313 313 312 309 307 304 302 300 298 295 292 290 288 287 285 285 285 286 286 285 286 287